Wind_Speed
16 16 17 18 19 19 20 20 19 19 19 20 20 19 19 19 19 18 18 17 17 17 17 17 17 17 17 17 16 16 15 15 15 16 17 17 18 19 20 20 21 21 22
17 17 17 17 18 18 18 18 18 18 20 20 21 21 21 21 21 20 19 19 18 17 18 17 18 18 18 17 16 16 16 16 16 17 17 17 18 19 20 21 21 22 22
18 18 19 18 18 18 19 19 19 19 20 21 22 22 23 23 23 22 21 20 20 19 18 18 18 18 18 18 18 17 17 18 18 19 19 19 20 21 22 23 23 24 24
19 19 19 19 19 19 20 20 21 21 21 22 22 23 23 24 24 23 22 22 21 20 19 19 19 18 19 18 18 18 17 17 18 19 20 20 21 22 23 24 25 25 26
20 20 19 19 19 20 21 21 21 22 23 23 23 23 24 24 24 23 23 22 22 22 21 20 20 20 20 19 19 18 17 17 18 20 21 22 23 24 25 26 26 26 27
22 21 21 21 21 22 22 22 22 23 23 23 24 24 24 24 24 24 24 23 23 23 23 21 20 20 20 20 19 19 18 18 18 20 22 23 24 26 27 27 28 28 27
24 24 23 23 23 23 24 23 23 23 23 24 25 25 25 26 26 25 25 25 25 25 24 23 21 20 20 20 19 18 18 18 19 21 23 24 26 27 28 29 29 29 28
28 26 26 25 25 25 25 25 24 23 22 22 22 23 24 25 25 25 25 25 25 25 24 23 21 20 20 19 19 19 18 19 21 23 24 25 25 26 27 28 28 28 28
29 27 27 26 26 26 25 24 24 23 23 22 21 21 22 23 24 24 24 24 25 25 24 23 21 20 20 20 21 21 21 22 23 25 26 26 25 25 25 26 25 25 26
30 29 28 27 27 26 26 25 25 24 23 23 22 21 21 22 22 22 23 23 23 24 24 24 23 22 22 23 24 24 24 25 26 27 27 27 27 26 26 25 24 24 24
31 31 30 29 28 28 27 27 27 26 25 23 23 22 22 22 22 21 21 21 22 22 24 25 26 26 26 27 28 28 29 30 30 30 30 29 29 28 28 27 25 25 25
31 32 33 32 30 29 29 30 29 28 26 25 24 23 22 22 21 21 21 20 21 22 23 24 26 28 30 30 31 32 34 34 34 34 33 33 32 31 30 29 28 27 27
31 31 32 32 31 31 31 32 32 31 29 27 26 25 24 23 22 21 21 21 21 21 22 23 25 27 29 31 33 34 35 36 36 36 35 35 34 33 32 32 32 31 30
29 29 30 30 30 31 32 33 33 32 31 30 28 27 26 25 24 23 23 22 22 23 23 24 25 25 27 28 29 30 31 33 35 36 36 36 36 36 35 34 34 34 34
28 29 29 29 29 31 33 33 33 33 32 32 30 29 28 27 26 25 25 25 24 25 25 26 26 27 27 28 28 29 31 32 33 34 35 36 36 36 35 35 35 35 35
31 30 30 29 29 30 31 32 33 33 33 32 31 30 29 29 28 28 27 27 27 28 28 28 28 29 29 29 30 31 32 33 33 33 33 33 34 34 34 34 35 34 34
33 33 31 30 30 30 30 31 32 33 33 32 32 31 30 29 29 29 29 29 30 30 30 30 31 31 31 31 32 32 33 33 33 32 32 32 32 32 33 33 34 34 35
36 35 33 32 31 31 31 31 32 32 32 32 32 31 30 29 30 30 30 31 31 31 31 31 31 31 32 33 33 33 34 34 34 33 33 33 33 34 34 35 36 37 38
38 37 36 34 33 32 32 33 33 32 30 31 31 31 30 31 32 32 32 32 32 32 32 32 32 32 33 33 34 35 35 35 35 34 35 35 36 37 38 39 40 41 42
40 40 38 37 35 34 35 35 34 32 31 31 31 31 31 32 33 33 32 32 32 33 33 33 32 33 33 35 35 36 36 36 36 35 36 37 38 40 42 43 44 45 46
41 42 41 40 38 37 37 36 36 35 35 35 34 32 32 33 33 33 33 33 33 33 34 34 34 34 35 36 36 36 36 37 37 37 37 38 40 41 43 45 47 48 48
43 44 44 43 42 41 41 40 40 40 40 39 36 34 33 33 34 34 33 33 33 33 35 35 36 36 36 36 36 36 37 37 38 39 40 41 42 44 46 47 49 49 49
46 46 46 46 47 46 45 45 44 44 43 41 38 36 36 37 37 36 35 34 33 34 35 36 36 36 36 37 36 37 38 38 40 40 42 44 45 47 48 49 49 49 49
48 49 49 49 50 50 49 48 47 46 45 44 43 42 42 41 40 39 37 36 35 36 36 36 36 36 36 37 37 38 39 40 41 42 43 44 46 47 48 49 49 50 50
51 52 53 53 53 53 54 52 51 48 47 47 48 47 45 44 43 42 40 38 37 37 37 36 36 36 37 38 39 40 41 41 42 43 44 45 46 47 49 50 51 52 53
55 56 57 58 58 58 58 57 55 53 50 49 49 49 48 47 46 45 43 41 40 39 38 37 37 37 38 39 40 41 41 42 43 44 44 45 46 48 50 53 54 55 55
Wind_Direction
257 260 262 264 266 268 269 269 269 267 264 262 262 265 270 274 279 283 278 271 271 274 273 269 266 266 268 272 277 281 283 283 282 282 282 284 286 287 286 285 283 282 282
260 260 262 265 268 269 270 270 270 268 265 263 262 264 268 272 276 278 276 270 267 270 271 269 267 269 271 275 277 279 280 280 281 281 282 283 284 285 285 284 284 284 284
261 261 262 263 267 269 270 270 271 270 269 266 264 264 266 269 272 273 273 268 264 265 267 267 267 269 272 275 276 277 279 280 282 283 283 284 285 286 286 285 285 286 286
259 260 263 264 266 267 269 271 272 272 273 271 269 267 266 268 269 270 270 267 263 262 262 263 265 267 270 272 274 276 279 282 284 286 286 286 286 286 286 286 285 286 286
256 258 261 263 264 265 268 270 271 272 273 273 271 269 268 267 267 268 268 266 263 261 261 261 262 265 267 270 272 275 278 281 284 286 288 288 288 286 285 284 284 284 285
253 255 258 260 262 263 266 268 269 270 271 272 272 272 271 269 268 269 268 267 264 262 261 261 262 265 267 269 271 274 277 280 283 285 289 290 290 288 285 284 284 284 284
253 254 256 258 260 263 266 268 269 272 274 275 276 275 274 274 271 270 269 269 267 264 263 263 263 264 266 268 269 270 273 279 283 287 290 291 291 289 286 283 282 282 281
251 253 256 259 261 264 267 269 271 272 275 278 280 279 279 278 275 273 270 270 270 268 265 264 263 264 265 266 266 267 271 277 284 289 293 296 297 296 291 286 283 280 278
252 252 255 258 261 264 268 271 273 274 277 279 282 283 282 280 278 274 271 270 272 270 267 264 262 261 261 261 262 265 270 276 283 289 293 296 299 298 295 291 286 282 279
253 254 254 256 260 263 267 271 273 275 277 278 281 284 284 282 279 275 272 271 271 270 266 263 260 258 257 257 259 264 269 274 280 284 288 292 294 295 294 292 288 285 282
250 252 253 255 257 260 264 267 270 273 275 276 278 282 284 284 281 277 274 271 271 271 269 265 261 257 256 256 259 264 268 272 277 280 283 286 289 289 289 288 285 282 280
247 250 252 254 255 257 260 264 267 270 272 274 276 279 283 284 283 280 278 276 275 275 274 272 268 264 261 260 261 265 269 272 274 276 278 281 284 285 284 282 281 279 278
249 251 253 255 256 257 259 261 264 267 269 271 273 276 279 281 282 281 280 279 279 280 281 280 278 274 272 270 269 270 272 274 275 275 275 277 280 282 282 280 278 277 277
249 250 252 255 257 258 259 261 263 265 267 270 272 274 276 278 279 279 279 278 280 283 285 286 285 283 280 279 277 277 278 279 279 277 275 275 277 279 281 281 279 277 276
250 250 251 254 256 257 259 261 263 266 267 269 271 273 274 276 277 278 279 279 280 282 283 285 287 286 286 284 284 284 284 284 283 281 279 278 278 279 280 281 280 278 276
251 252 252 253 254 257 260 263 264 265 266 267 269 270 271 273 275 276 277 279 280 281 282 285 287 287 286 285 285 285 287 287 285 283 282 282 281 280 280 281 280 278 276
250 253 254 253 253 255 258 260 262 262 263 264 266 267 269 271 273 274 276 278 280 282 284 286 287 287 286 285 285 285 286 287 285 282 282 282 282 281 281 282 280 278 277
249 251 253 253 253 254 255 257 258 260 261 263 264 265 267 269 270 272 275 277 280 281 283 285 287 287 286 286 286 285 285 286 284 280 279 280 280 280 281 281 281 281 280
247 249 250 250 250 251 253 254 256 258 260 262 262 263 263 264 266 269 272 275 277 279 281 284 286 288 288 288 287 286 286 286 284 281 279 279 280 281 281 282 282 282 282
245 248 249 250 250 250 251 253 256 258 259 258 258 258 259 262 264 267 270 272 275 278 280 283 286 288 289 289 289 289 287 286 286 284 281 280 281 281 282 283 283 283 283
245 247 249 251 251 251 251 253 256 257 256 255 255 255 258 261 264 267 269 271 274 277 280 282 284 287 289 290 290 290 289 288 287 287 286 284 283 283 284 285 285 285 284
247 247 248 250 251 251 251 251 252 253 254 255 255 257 259 261 262 264 267 270 273 276 278 280 283 286 288 289 290 291 291 290 289 289 289 288 287 287 287 286 286 285 284
251 250 250 250 250 251 251 251 250 252 254 257 258 258 258 258 260 263 267 270 273 275 278 280 282 285 287 288 290 291 291 290 290 290 290 289 289 289 288 288 287 286 285
254 253 253 252 251 251 252 252 252 252 254 256 257 256 256 258 261 264 267 268 271 274 277 279 282 284 286 288 289 290 291 291 291 291 291 291 291 291 291 290 289 287 286
258 257 257 256 254 252 252 252 253 252 252 253 255 257 258 260 262 264 266 268 270 272 275 278 280 282 285 287 289 290 291 292 292 293 294 295 295 295 295 293 292 290 289
260 260 259 257 256 254 253 252 252 252 252 252 253 255 257 258 260 263 265 268 270 272 274 276 279 281 283 286 287 289 290 291 293 293 295 296 297 297 297 296 294 292 291
Height
5867 5867 5868 5869 5869 5870 5871 5871 5872 5872 5873 5873 5874 5874 5875 5875 5875 5875 5874 5874 5874 5874 5874 5874 5874 5873 5873 5872 5872 5871 5870 5870 5869 5869 5868 5868 5867 5867 5866 5865 5865 5864 5864
5865 5865 5866 5866 5867 5867 5867 5868 5868 5869 5869 5870 5871 5871 5872 5872 5872 5872 5872 5871 5871 5871 5871 5871 5871 5871 5870 5870 5869 5869 5868 5867 5866 5865 5865 5865 5864 5864 5863 5862 5862 5861 5860
5862 5863 5863 5864 5864 5864 5864 5865 5865 5866 5866 5867 5867 5868 5868 5868 5869 5869 5869 5868 5868 5868 5868 5868 5868 5867 5867 5867 5866 5866 5865 5864 5863 5863 5862 5862 5861 5860 5860 5859 5858 5857 5856
5859 5860 5861 5861 5862 5862 5862 5862 5863 5863 5863 5864 5864 5864 5864 5865 5865 5865 5865 5865 5865 5865 5865 5864 5864 5864 5863 5863 5863 5862 5862 5861 5861 5860 5859 5859 5858 5857 5856 5855 5854 5853 5852
5856 5857 5858 5858 5859 5859 5859 5859 5860 5860 5861 5861 5861 5861 5861 5861 5861 5861 5861 5861 5861 5861 5861 5861 5861 5860 5860 5860 5860 5859 5859 5859 5858 5857 5856 5855 5854 5853 5851 5850 5850 5849 5848
5852 5853 5854 5855 5855 5856 5856 5856 5857 5858 5858 5858 5858 5858 5858 5858 5858 5858 5858 5858 5858 5858 5858 5857 5857 5857 5857 5856 5856 5856 5856 5855 5855 5853 5852 5852 5850 5849 5847 5846 5845 5844 5843
5848 5849 5850 5851 5852 5852 5853 5853 5854 5854 5854 5854 5854 5854 5854 5854 5854 5854 5854 5854 5854 5854 5854 5854 5853 5853 5853 5853 5852 5852 5852 5852 5851 5849 5848 5847 5846 5845 5843 5842 5840 5839 5839
5843 5844 5845 5846 5847 5848 5849 5849 5850 5850 5851 5851 5851 5850 5850 5850 5850 5850 5850 5850 5850 5850 5850 5850 5849 5849 5849 5849 5849 5849 5848 5848 5846 5845 5844 5842 5841 5840 5838 5837 5835 5834 5834
5838 5840 5841 5842 5843 5844 5845 5845 5846 5846 5846 5846 5846 5846 5846 5846 5846 5846 5846 5846 5845 5845 5845 5845 5845 5845 5845 5845 5845 5845 5844 5843 5842 5841 5840 5838 5837 5835 5833 5832 5831 5830 5829
5833 5835 5836 5837 5838 5839 5840 5841 5841 5842 5842 5842 5842 5842 5842 5842 5842 5842 5842 5841 5841 5841 5842 5842 5841 5841 5841 5841 5841 5841 5840 5839 5838 5837 5836 5834 5833 5831 5829 5828 5826 5825 5825
5828 5829 5830 5832 5834 5835 5835 5836 5836 5837 5837 5838 5838 5838 5838 5838 5838 5838 5838 5838 5838 5838 5838 5838 5837 5837 5837 5836 5836 5836 5835 5834 5833 5832 5831 5830 5828 5827 5825 5823 5822 5821 5820
5823 5824 5825 5827 5829 5830 5831 5831 5832 5832 5833 5833 5834 5834 5834 5834 5834 5834 5834 5834 5834 5834 5833 5833 5833 5832 5832 5831 5831 5830 5829 5828 5827 5826 5825 5824 5823 5822 5820 5819 5817 5816 5815
5817 5819 5820 5822 5823 5825 5825 5826 5827 5827 5828 5829 5829 5830 5830 5830 5830 5830 5830 5830 5830 5830 5829 5829 5828 5828 5827 5826 5826 5825 5823 5821 5820 5819 5818 5817 5816 5815 5814 5812 5811 5810 5809
5812 5814 5815 5816 5817 5819 5819 5820 5821 5822 5823 5824 5824 5825 5825 5825 5825 5826 5826 5826 5825 5825 5824 5824 5823 5822 5821 5821 5820 5819 5816 5815 5813 5812 5811 5810 5809 5808 5807 5805 5804 5803 5802
5806 5808 5809 5810 5811 5812 5812 5814 5815 5816 5817 5818 5819 5820 5820 5820 5820 5820 5820 5820 5820 5819 5819 5818 5817 5816 5815 5815 5814 5812 5810 5808 5806 5805 5803 5802 5801 5801 5799 5798 5797 5796 5795
5798 5800 5802 5804 5805 5805 5806 5807 5809 5809 5810 5811 5813 5814 5815 5815 5815 5815 5815 5815 5814 5814 5813 5812 5811 5810 5809 5808 5807 5806 5804 5801 5800 5798 5796 5795 5794 5793 5792 5791 5790 5789 5788
5792 5793 5795 5797 5799 5800 5801 5801 5802 5803 5803 5805 5806 5807 5808 5809 5809 5809 5809 5809 5808 5807 5806 5805 5805 5804 5803 5801 5800 5798 5797 5794 5792 5791 5789 5788 5787 5786 5785 5783 5782 5781 5780
5785 5786 5788 5790 5792 5793 5794 5795 5795 5796 5797 5798 5799 5800 5802 5802 5802 5803 5803 5803 5802 5801 5800 5799 5798 5797 5796 5794 5792 5791 5789 5787 5785 5783 5782 5780 5779 5778 5777 5775 5774 5773 5772
5778 5779 5780 5782 5784 5786 5787 5787 5788 5789 5791 5791 5792 5794 5795 5795 5795 5795 5796 5796 5795 5794 5794 5793 5791 5790 5788 5787 5785 5783 5781 5780 5778 5776 5774 5772 5771 5769 5768 5766 5765 5764 5762
5770 5771 5773 5774 5776 5778 5778 5779 5780 5782 5784 5785 5785 5787 5787 5787 5787 5787 5788 5788 5787 5787 5786 5785 5784 5783 5781 5779 5777 5775 5774 5772 5770 5768 5766 5764 5763 5761 5759 5757 5755 5753 5752
5761 5763 5765 5766 5768 5769 5770 5771 5772 5774 5775 5776 5777 5779 5780 5780 5779 5780 5780 5780 5780 5779 5779 5778 5777 5775 5773 5772 5770 5767 5766 5764 5761 5759 5757 5756 5754 5752 5749 5747 5745 5742 5740
5751 5753 5755 5757 5758 5760 5762 5763 5764 5764 5765 5767 5769 5772 5773 5772 5772 5772 5772 5773 5772 5772 5771 5770 5769 5767 5766 5764 5762 5759 5758 5756 5753 5751 5748 5746 5744 5741 5739 5736 5734 5731 5728
5741 5743 5745 5747 5748 5749 5751 5753 5754 5754 5756 5758 5762 5764 5764 5763 5763 5764 5765 5765 5765 5764 5763 5762 5761 5759 5758 5756 5754 5752 5749 5747 5745 5742 5739 5736 5734 5731 5727 5724 5722 5719 5716
5729 5731 5733 5735 5737 5738 5740 5742 5744 5746 5748 5750 5752 5753 5753 5754 5754 5755 5756 5756 5756 5756 5755 5753 5752 5751 5749 5747 5745 5743 5741 5738 5736 5733 5730 5726 5723 5719 5716 5712 5709 5706 5703
5716 5718 5719 5721 5724 5726 5728 5730 5733 5736 5738 5740 5741 5742 5743 5744 5745 5746 5747 5748 5748 5747 5746 5745 5744 5743 5741 5739 5736 5734 5731 5728 5726 5723 5719 5716 5713 5708 5704 5700 5696 5693 5689
5703 5703 5704 5706 5708 5711 5714 5717 5720 5723 5726 5728 5730 5731 5732 5733 5735 5736 5738 5738 5738 5738 5737 5736 5735 5734 5732 5730 5728 5725 5722 5720 5716 5713 5710 5706 5702 5697 5692 5686 5681 5678 5674